Location: Newark
(41.0400°S, 62.7845°W)
Time: 22:14:31
(UTC+00:00)

Vanguard 1 - All Passes

Search period start: 06 December 2021 00:00
Search period end: 16 December 2021 00:00
Orbit: 653 x 3830 km, 34.3° (Epoch: 06 December)

Date Brightness Start Highest point End Pass type
(mag) Time Alt. Az. Time Alt. Az. Time Alt. Az.
06 Dec - 15:43:35 10° NW 15:47:18 22° NNE 15:50:51 10° ENE daylight
06 Dec - 18:02:27 10° WNW 18:06:41 40° N 18:12:06 10° ENE daylight
06 Dec - 20:21:46 10° WNW 20:26:35 31° NNW 20:33:52 10° NE daylight
06 Dec - 22:43:27 10° NW 22:47:35 14° NNW 22:52:50 10° N daylight
07 Dec - 16:03:58 10° NW 16:08:02 28° NNE 16:11:58 10° ENE daylight
07 Dec - 18:23:14 10° WNW 18:27:29 39° N 18:33:02 10° ENE daylight
07 Dec - 20:42:53 10° WNW 20:47:31 25° NNW 20:54:13 10° NNE daylight
08 Dec - 14:06:01 10° NNW 14:09:12 15° NNE 14:11:56 10° NE daylight
08 Dec - 16:24:33 10° NW 16:28:46 33° N 16:32:58 10° ENE daylight
08 Dec - 18:44:04 10° WNW 18:48:16 35° N 18:53:52 10° ENE daylight
08 Dec - 21:04:17 10° WNW 21:08:27 19° NNW 21:14:07 10° NNE daylight
09 Dec - 14:25:48 10° NNW 14:30:00 20° NNE 14:33:28 10° ENE daylight
09 Dec - 16:45:17 10° WNW 16:49:32 37° N 16:53:54 10° ENE daylight
09 Dec - 19:05:00 10° WNW 19:09:06 30° NNW 19:14:32 10° NE daylight
09 Dec - 21:26:21 10° NW 21:29:25 13° NNW 21:33:09 10° N daylight
10 Dec - 12:29:56 10° NNE 12:30:39 10° NNE 12:31:19 10° NNE daylight
10 Dec - 14:46:04 10° NW 14:50:48 26° NNE 14:54:38 10° ENE daylight
10 Dec - 17:06:05 10° WNW 17:10:18 37° N 17:14:46 10° ENE daylight
10 Dec - 19:26:03 10° WNW 19:29:55 24° NNW 19:34:58 10° NE daylight
11 Dec - 12:47:28 10° NNW 12:51:35 15° NNE 12:54:52 10° NE daylight
11 Dec - 15:06:38 10° NW 15:11:36 32° N 15:15:37 10° ENE daylight
11 Dec - 17:26:57 10° WNW 17:31:04 35° N 17:35:33 10° ENE daylight
11 Dec - 19:47:22 10° WNW 19:50:46 18° NNW 19:55:01 10° NNE daylight
12 Dec - 13:07:03 10° NNW 13:12:29 21° NNE 13:16:31 10° ENE daylight
12 Dec - 15:27:23 10° WNW 15:32:23 36° N 15:36:30 10° ENE daylight
12 Dec - 17:47:53 10° WNW 17:51:50 30° N 17:56:13 10° NE daylight
12 Dec - 20:09:19 10° NW 20:11:37 13° NNW 20:14:17 10° N daylight
13 Dec - 11:10:18 10° N 11:12:35 11° NNE 11:14:39 10° NE daylight
13 Dec - 13:27:13 10° NW 13:33:22 27° NNE 13:37:44 10° ENE daylight
13 Dec - 15:48:14 10° WNW 15:53:10 38° N 15:57:19 10° ENE daylight
13 Dec - 18:08:56 10° WNW 18:12:36 24° NNW 18:16:43 10° NE daylight
14 Dec - 11:27:59 10° NNW 11:33:38 16° NNE 11:37:54 10° ENE daylight
14 Dec - 13:47:44 10° NW 13:54:15 33° N 13:58:44 10° ENE daylight
14 Dec - 16:09:09 10° WNW 16:13:56 38° N 16:18:05 10° ENE daylight
14 Dec - 18:30:10 10° WNW 18:33:21 19° NNW 18:36:54 10° NNE daylight
15 Dec - 11:47:20 10° NNW 11:54:38 22° NNE 11:59:41 10° ENE daylight
15 Dec - 14:08:29 10° WNW 14:15:06 38° N 14:19:37 10° ENE daylight
15 Dec - 16:30:08 10° WNW 16:34:41 34° N 16:38:46 10° NE daylight
15 Dec - 18:51:53 10° NW 18:54:06 13° NNW 18:56:29 10° N daylight
